SERVIS 2 DEB, 43393

Orbit data source: Space-Track

SERVIS 2 DEB, 43393 is space debris in SSO originally from a launch on Wed, 02 Jun 2010 UTC launched from the Plesetsk Missile And Space Complex (PKMTR). Debris objects in space refer to the collection of defunct objects orbiting the Earth. Examples of debris include non-operational satellites, rocket bodies, and fragments generated from explosions, collisions, or faulty payload assembly.

Loading next visibility...
Identifier
43393, 2010-023C
Orbit
SSO
Country
Flag of CISCIS
Related business
Manufacturer
MELCO
Mission
Spacecraft
Bus & Motor
Unknown
Mass
Unknown
Launch date (UTC)
2010-06-02 (15 years ago)
Launch vehicle
Unknown
Launch site
Plesetsk Missile And Space Complex (PKMTR)
Object type
Payload
Rocket body
Debris
Shape & HBR
Unknown
Radar Cross Section
Small (<0.1 m²)

Expand to show TLE details & history
Last TLE update: 20 hours ago

TLE from 20 hours ago
0 SERVIS 2 DEB
1 43393U 10023C   25257.37539830  .00004002  00000-0  68901-2 0  9999
2 43393 100.5863 226.7555 0016844 339.4875  20.5576 13.44894096573379
Epoch: 2025-09-14T09:00Z
TLE epoch observation values (Epoch: 2025-09-14T09:00:34.413Z)
Latitude
0.00007°
Longitude
98.01679°
Altitude
1,082.071 km
Speed
7.317 km/s
True Right ascension
15h 07m 01s
True Declination
0° 00' 00"
Sunlit
Object was in daylight at epoch
Visualization orbit readout
Latitude
Unknown
Longitude
Unknown
Altitude
Unknown
Speed
Unknown
Apparent Right ascension
Unknown
Apparent Declination
Unknown
Sunlit
N/A
Visualization observer readout
Local Sidereal Time
21:14:26
Azimuth
Unknown
Elevation
Unknown
Doppler factor
Unknown
Orbital elements
Apogee altitude
1,101.036 km
Perigee altitude
1,075.882 km
Semi-major axis
7,466.596 km
Eccentricity
0.00168
Inclination
100.5863°
RAAN
226.7555°
Arg. of periapsis
339.4875°
True anomaly
20.62551°
Mean anomaly
20.5576°
Eccentric anomaly
20.59154°
Mean motion
3.36402 °/min
Orbital period
107.01 mins
BSTAR
0.0068901
Loading maneuver chart data...
Computing Atmospheric mass density...
Loading historical data...
Loading historical data...
Loading historical data...
Loading historical data...
Loading historical data...
Loading historical data...
Loading historical data...
Other satellites on launch #23 in the year 2010 (2010-06-02 UTC)

Documentation

Showing up to 5 results
|